Left ArrowRight Arrow

40.92501, -98.34201

Hourly Observations for June 19, 2024

Temp ( °F °C ) Dew Point ( °F °C ) Humidity (%) Winds ( mph kmh ) Pressure ( in mb ) Visibility ( mi km ) Precip ( " mm )
12:53 am 00:53 Cloudy 65 18.3 59 15 81 81 NNE 10 17 30.01 1016 10 16 0.00 0.00
1:53 am 01:53 Cloudy 64 17.8 58 14.4 80 80 NE 7 11 30.06 1018 10 16 0.00 0.00
2:53 am 02:53 Cloudy 64 17.8 57 13.9 78 78 NE 9 15 30.07 1018 10 16 0.00 0.00
3:53 am 03:53 Cloudy 63 17.2 58 14.4 84 84 NE 6 9 30.09 1019 10 16 0.00 0.00
4:53 am 04:53 Cloudy 63 17.2 58 14.4 84 84 N 6 9 30.14 1021 10 16 0.00 0.00
5:53 am 05:53 Cloudy 63 17.2 58 14.4 84 84 NE 9 15 30.16 1021 10 16 0.00 0.00
6:53 am 06:53 Cloudy 63 17.2 59 15 87 87 WNW 8 13 30.23 1024 10 16 0.00 0.00
7:01 am 07:01 Cloudy 63 17.2 58 14.4 84 84 WNW 6 9 30.20 1023 10 16 0.00 0.00
7:53 am 07:53 Cloudy with Light Rain 61 16.1 58 14.4 90 90 ENE 10 17 30.23 1024 8 13 0.06 1.52
8:53 am 08:53 Mostly Sunny 62 16.7 57 13.9 84 84 NE 12 19 30.24 1024 10 16 0.04 1.02
9:53 am 09:53 Mostly Cloudy 63 17.2 54 12.2 72 72 NE 13 20 30.24 1024 10 16 0.00 0.00
10:53 am 10:53 Partly Cloudy 65 18.3 56 13.3 73 73 NE 8 13 30.27 1025 10 16 0.00 0.00
11:53 am 11:53 Mostly Sunny 67 19.4 57 13.9 71 71 NNE 13 20 30.26 1025 10 16 0.00 0.00
12:53 pm 12:53 Cloudy 69 20.6 58 14.4 68 68 NNE 10 17 30.27 1025 10 16 0.00 0.00
1:53 pm 13:53 Cloudy 69 20.6 57 13.9 65 65 NE 12 19 30.26 1025 10 16 0.00 0.00
2:53 pm 14:53 Cloudy 70 21.1 57 13.9 63 63 ENE 13 20 30.25 1024 10 16 0.00 0.00
3:53 pm 15:53 Cloudy 70 21.1 57 13.9 63 63 ENE 14 22 30.24 1024 10 16 0.00 0.00
4:53 pm 16:53 Cloudy 70 21.1 58 14.4 66 66 E 10 17 30.24 1024 10 16 0.00 0.00
5:53 pm 17:53 Sunny 71 21.7 58 14.4 63 63 undefined N/A 30.22 1023 10 16 0.00 0.00
6:53 pm 18:53 Sunny 70 21.1 58 14.4 66 66 E 8 13 30.22 1023 10 16 0.00 0.00
7:27 pm 19:27 Mostly Cloudy 69 20.6 59 15 70 70 E 9 15 30.18 1022 10 16 0.00 0.00
7:53 pm 19:53 Cloudy 69 20.6 59 15 70 70 E 9 15 30.24 1024 10 16 0.00 0.00
8:53 pm 20:53 Cloudy 68 20 59 15 73 73 E 12 19 30.23 1024 10 16 0.00 0.00
9:48 pm 21:48 Cloudy 66 19 61 16 83 83 ENE 8 13 30.20 1023 10 16 0.00 0.00
9:53 pm 21:53 Cloudy 66 18.9 60 15.6 81 81 ENE 7 11 30.25 1024 10 16 0.00 0.00
10:02 pm 22:02 Cloudy 66 18.9 60 15.6 81 81 ENE 7 11 30.21 1023 10 16 0.00 0.00
10:15 pm 22:15 Cloudy 66 18.9 61 16.1 84 84 ENE 7 11 30.22 1023 10 16 0.00 0.00
10:53 pm 22:53 Cloudy 67 19.4 61 16.1 81 81 E 5 7 30.27 1025 10 16 0.00 0.00
11:04 pm 23:04 Cloudy 67 19.4 61 16.1 81 81 E 7 11 30.23 1024 10 16 0.00 0.00
11:53 pm 23:53 Cloudy 66 18.9 61 16.1 84 84 E 5 7 30.28 1025 10 16 0.00 0.00

Powered by Vaisala Xweather